User: anonymous   Login
Location: Unspecified
(0.0000°N, 0.0000°E)
Time: 05:24:58
(UTC+00:00)
Language:

Explorer 11/Cluster Stage 4 - Orbit

View from above orbital plane
View from above orbital plane
View from above satellite
View from above satellite

Ground track
Ground track

The orbit data is extracted from the following two-line orbital elements,

1   107U 61013A   19168.22273377  .00000372  00000-0  30724-4 0  9999
2   107  28.7893  89.5317 0547200 349.3711   9.5693 14.08785758914083
Epoch (UTC): 17 June 2019 05:20:44
Eccentricity: 0.0547200
inclination: 28.7893°
perigee height: 467 km
apogee height: 1260 km
right ascension of ascending node: 89.5317°
argument of perigee: 349.3711°
revolutions per day: 14.08785758
mean anomaly at epoch: 9.5693°
orbit number at epoch: 91408

The dashed part of the orbit path shows where the satellite is in the earth's shadow,  

DLR